This demonstration page uses our WeatherBlox Daily Observations layout. Learn more.

Left ArrowRight Arrow

41.12389, -100.76542

Hourly Observations for January 19, 2018

Temp ( °F °C ) Dew Point ( °F °C ) Humidity (%) Winds ( mph kmh ) Pressure ( in mb ) Visibility ( mi km ) Precip ( " mm )
12:53 am 00:53 Clear 26 -3.3 22 -5.6 84 84 WNW 3 6 29.87 1012 10 16 0.00 0.00
1:53 am 01:53 Clear 25 -3.9 22 -5.6 88 88 NW 3 6 29.84 1011 10 16 0.00 0.00
2:53 am 02:53 Clear 25 -3.9 21 -6.1 85 85 WNW 6 9 29.83 1010 10 16 0.00 0.00
3:53 am 03:53 Clear 24 -4.4 20 -6.7 84 84 WNW 6 9 29.82 1010 10 16 0.00 0.00
4:53 am 04:53 Clear 23 -5 20 -6.7 88 88 NW 3 6 29.80 1009 10 16 0.00 0.00
5:53 am 05:53 Clear 24 -4.4 21 -6.1 88 88 NW 5 7 29.81 1009 10 16 0.00 0.00
6:53 am 06:53 Clear 27 -2.8 23 -5 85 85 Calm 29.80 1009 10 16 0.00 0.00
7:53 am 07:53 Clear 27 -2.8 23 -5 85 85 WNW 5 7 29.80 1009 10 16 0.00 0.00
8:53 am 08:53 Sunny 29 -1.7 24 -4.4 82 82 NW 6 9 29.79 1009 10 16 0.00 0.00
9:53 am 09:53 Sunny 34 1.1 27 -2.8 76 76 NW 6 9 29.79 1009 10 16 0.00 0.00
10:53 am 10:53 Sunny 37 2.8 29 -1.7 73 73 Calm 29.78 1008 10 16 0.00 0.00
11:53 am 11:53 Sunny 42 5.6 31 -0.6 65 65 WNW 8 13 29.76 1008 10 16 0.00 0.00
12:53 pm 12:53 Sunny 46 7.8 30 -1.1 54 54 WNW 6 9 29.72 1006 10 16 0.00 0.00
1:53 pm 13:53 Sunny 50 10 30 -1.1 46 46 WNW 5 7 29.67 1005 10 16 0.00 0.00
2:53 pm 14:53 Sunny 51 10.6 32 0 48 48 WNW 5 7 29.67 1005 10 16 0.00 0.00
3:53 pm 15:53 Sunny 50 10 33 0.6 52 52 WNW 6 9 29.68 1005 10 16 0.00 0.00
4:53 pm 16:53 Sunny 43 6.1 33 0.6 68 68 WNW 5 7 29.73 1007 10 16 0.00 0.00
5:53 pm 17:53 Clear 40 4.4 31 -0.6 70 70 Calm 29.75 1008 10 16 0.00 0.00
6:53 pm 18:53 Clear 38 3.3 30 -1.1 73 73 E 6 9 29.77 1008 10 16 0.00 0.00
7:53 pm 19:53 Clear 41 5 32 0 70 70 NE 12 19 29.77 1008 10 16 0.00 0.00
8:53 pm 20:53 Clear 40 4.4 31 -0.6 70 70 NNE 3 6 29.79 1009 10 16 0.00 0.00
9:53 pm 21:53 Clear 37 2.8 30 -1.1 76 76 NW 6 9 29.82 1010 10 16 0.00 0.00
10:53 pm 22:53 Clear 33 0.6 29 -1.7 85 85 NNW 3 6 29.83 1010 10 16 0.00 0.00
11:53 pm 23:53 Clear 34 1.1 29 -1.7 82 82 Calm 29.80 1009 10 16 0.00 0.00

Powered by AerisWeather